Tracking 19903 objects as of 17-Oct-2019
HD Live streaming from Space Station
objects crossing your sky now

IRIDIUM 33 DEB

Track IRIDIUM 33 DEB now!
10-day predictions


NORAD ID: 38228
Int'l Code: 1997-051ZC
Perigee: 774.5 km
Apogee: 868.7 km
Inclination: 86.3 °
Period: 101.2 minutes
Semi major axis: 7192 km
RCS: 0.0068 m2 (small)
Launch date: September 14, 1997
Source: United States (US)
Launch site: TYURATAM MISSILE AND SPACE COMPLEX (TTMTR)

Note: This is SATELLITE DEBRIS
aabbcc
Your satellite tracking list
Your tracking list is empty




NASA's NSSDC Master Catalog

Two Line Element Set (TLE):
1 38228U 97051ZC  19287.27334814 +.00000223 +00000-0 +88467-4 0  9998
2 38228 086.2907 280.4820 0065503 210.5571 207.5007 14.23221284527308
Source of the keplerian elements: AFSPC